Bowling Green, Kentucky, United States (42101)
Lat: 36.99N, Lon: 86.44W
Wx Zone: KYZ071
Local Info
Past Weather Observations for Saturday, December 13, 2014

NOTE: This archive is for the closest National Weather Service station to Bowling Green. Information may differ from the station used for current weather conditions.

Click here for Long-term Archive

Time Weather Temperature Dewpoint Humidity Pressure Winds Precip Visibility
23:55
Overcast
43°F / 6°C 36°F / 2°C 76% 30.21 in
(1023 mb)
Calm - 7SM
23:35
Overcast
43°F / 6°C 36°F / 2°C 76% 30.21 in
(1023 mb)
Calm - 7SM
23:15
Overcast
43°F / 6°C 37°F / 3°C 81% 30.21 in
(1023 mb)
Calm - 7SM
22:55
Overcast
43°F / 6°C 37°F / 3°C 81% 30.21 in
(1023 mb)
Calm - 7SM
22:35
Overcast
43°F / 6°C 36°F / 2°C 76% 30.21 in
(1023 mb)
Calm - 7SM
22:15
Overcast
43°F / 6°C 36°F / 2°C 76% 30.24 in
(1024 mb)
Calm - 7SM
21:55
Overcast
43°F / 6°C 36°F / 2°C 76% 30.24 in
(1024 mb)
Calm - 7SM
21:35
Overcast
43°F / 6°C 37°F / 3°C 81% 30.24 in
(1024 mb)
Calm - 7SM
21:15
Overcast
43°F / 6°C 37°F / 3°C 81% 30.24 in
(1024 mb)
Calm - 7SM
20:55
Overcast
43°F / 6°C 36°F / 2°C 76% 30.24 in
(1024 mb)
Calm - 7SM
20:35
Overcast
43°F / 6°C 36°F / 2°C 76% 30.24 in
(1024 mb)
Calm - 7SM
20:15
Overcast
43°F / 6°C 36°F / 2°C 76% 30.24 in
(1024 mb)
Calm - 7SM
19:55
Overcast
43°F / 6°C 36°F / 2°C 76% 30.24 in
(1024 mb)
Calm - 7SM
19:35
Overcast
43°F / 6°C 36°F / 2°C 76% 30.24 in
(1024 mb)
Calm - 7SM
19:15
Overcast
43°F / 6°C 36°F / 2°C 76% 30.24 in
(1024 mb)
Calm - 7SM
18:55
Overcast
43°F / 6°C 36°F / 2°C 76% 30.24 in
(1024 mb)
Calm - 7SM
18:35
Overcast
43°F / 6°C 36°F / 2°C 76% 30.24 in
(1024 mb)
SW 3.5 mph
(SW 6 kph)
- 7SM
18:15
Overcast
43°F / 6°C 36°F / 2°C 76% 30.24 in
(1024 mb)
Calm - 7SM
17:55
Overcast
43°F / 6°C 36°F / 2°C 76% 30.24 in
(1024 mb)
Calm - 7SM
17:35
Overcast
43°F / 6°C 36°F / 2°C 76% 30.24 in
(1024 mb)
Calm - 10SM
17:15
Overcast
43°F / 6°C 37°F / 3°C 81% 30.24 in
(1024 mb)
Calm - 10SM
16:55
Overcast
45°F / 7°C 36°F / 2°C 71% 30.24 in
(1024 mb)
Calm - 10SM
16:35
Overcast
45°F / 7°C 36°F / 2°C 71% 30.24 in
(1024 mb)
Calm - 10SM
16:15
Overcast
45°F / 7°C 36°F / 2°C 71% 30.24 in
(1024 mb)
Calm - 10SM
15:55
Overcast
46°F / 8°C 36°F / 2°C 66% 30.24 in
(1024 mb)
Calm - 10SM
15:35
Overcast
46°F / 8°C 36°F / 2°C 66% 30.24 in
(1024 mb)
Calm - 10SM
15:15
Overcast
46°F / 8°C 36°F / 2°C 66% 30.24 in
(1024 mb)
Calm - 10SM
14:55
Overcast
46°F / 8°C 36°F / 2°C 66% 30.24 in
(1024 mb)
Calm - 10SM
14:35
Overcast
46°F / 8°C 36°F / 2°C 66% 30.24 in
(1024 mb)
Calm - 10SM
14:15
Overcast
46°F / 8°C 36°F / 2°C 66% 30.24 in
(1024 mb)
Calm - 10SM
13:55
Overcast
46°F / 8°C 36°F / 2°C 66% 30.24 in
(1024 mb)
Calm - 10SM
13:35
Overcast
46°F / 8°C 36°F / 2°C 66% 30.27 in
(1025 mb)
Calm - 10SM
13:15
Overcast
45°F / 7°C 36°F / 2°C 71% 30.27 in
(1025 mb)
Calm - 10SM
12:55
Overcast
45°F / 7°C 36°F / 2°C 71% 30.27 in
(1025 mb)
Calm - 7SM
12:35
Overcast
45°F / 7°C 36°F / 2°C 71% 30.27 in
(1025 mb)
Calm - 7SM
12:15
Overcast
43°F / 6°C 36°F / 2°C 76% 30.3 in
(1026 mb)
Calm - 7SM
11:55
Overcast
43°F / 6°C 36°F / 2°C 76% 30.3 in
(1026 mb)
Calm - 7SM
11:35
Overcast
43°F / 6°C 36°F / 2°C 76% 30.3 in
(1026 mb)
Calm - 7SM
11:15
Overcast
43°F / 6°C 36°F / 2°C 76% 30.33 in
(1027 mb)
Calm - 7SM
10:55
Overcast
43°F / 6°C 36°F / 2°C 76% 30.33 in
(1027 mb)
Calm - 7SM
10:35
Overcast
43°F / 6°C 36°F / 2°C 76% 30.33 in
(1027 mb)
Calm - 7SM
10:15
Overcast
41°F / 5°C 34°F / 1°C 76% 30.33 in
(1027 mb)
Calm - 7SM
09:55
Overcast
41°F / 5°C 34°F / 1°C 76% 30.36 in
(1028 mb)
Calm - 7SM
09:35
Overcast
41°F / 5°C 34°F / 1°C 76% 30.36 in
(1028 mb)
Calm - 7SM
09:15
Overcast
41°F / 5°C 34°F / 1°C 76% 30.36 in
(1028 mb)
Calm - 7SM
08:55
Overcast
39°F / 4°C 34°F / 1°C 81% 30.36 in
(1028 mb)
Calm - 7SM
08:35
Overcast
39°F / 4°C 34°F / 1°C 81% 30.36 in
(1028 mb)
Calm - 7SM
08:15
Overcast
39°F / 4°C 34°F / 1°C 81% 30.36 in
(1028 mb)
Calm - 7SM
07:55
Overcast
37°F / 3°C 34°F / 1°C 87% 30.33 in
(1027 mb)
Calm - 7SM
07:35
Overcast
37°F / 3°C 34°F / 1°C 87% 30.33 in
(1027 mb)
Calm - 7SM
07:15
Overcast
37°F / 3°C 34°F / 1°C 87% 30.33 in
(1027 mb)
Calm - 7SM
06:55
Overcast
37°F / 3°C 34°F / 1°C 87% 30.33 in
(1027 mb)
Calm - 7SM
06:35
Overcast
37°F / 3°C 34°F / 1°C 87% 30.33 in
(1027 mb)
Calm - 7SM
06:15
Overcast
37°F / 3°C 34°F / 1°C 87% 30.33 in
(1027 mb)
Calm - 7SM
05:55
Overcast
37°F / 3°C 34°F / 1°C 87% 30.33 in
(1027 mb)
Calm - 7SM
05:35
Overcast
37°F / 3°C 34°F / 1°C 87% 30.33 in
(1027 mb)
Calm - 10SM
05:15
Overcast
37°F / 3°C 34°F / 1°C 87% 30.33 in
(1027 mb)
Calm - 10SM
04:55
Overcast
37°F / 3°C 34°F / 1°C 87% 30.33 in
(1027 mb)
Calm - 10SM
04:35
Overcast
37°F / 3°C 34°F / 1°C 87% 30.33 in
(1027 mb)
Calm - 10SM
04:15
Overcast
37°F / 3°C 34°F / 1°C 87% 30.33 in
(1027 mb)
Calm - 10SM
03:55
Overcast
37°F / 3°C 34°F / 1°C 87% 30.3 in
(1026 mb)
Calm - 10SM
03:35
Overcast
39°F / 4°C 34°F / 1°C 81% 30.3 in
(1026 mb)
Calm - 10SM
03:15
Overcast
39°F / 4°C 34°F / 1°C 81% 30.33 in
(1027 mb)
Calm - 10SM
02:55
Overcast
37°F / 3°C 34°F / 1°C 87% 30.33 in
(1027 mb)
Calm - 10SM
02:35
Overcast
39°F / 4°C 34°F / 1°C 81% 30.33 in
(1027 mb)
Calm - 10SM
02:15
Overcast
39°F / 4°C 34°F / 1°C 81% 30.33 in
(1027 mb)
N 3.5 mph
(N 6 kph)
- 10SM
01:55
Overcast
37°F / 3°C 34°F / 1°C 87% 30.33 in
(1027 mb)
N 3.5 mph
(N 6 kph)
- 10SM
01:35
Overcast
36°F / 2°C 32°F / 0°C 87% 30.33 in
(1027 mb)
Calm - 10SM
01:15
Overcast
36°F / 2°C 32°F / 0°C 87% 30.33 in
(1027 mb)
Calm - 10SM
00:55
Overcast
36°F / 2°C 32°F / 0°C 87% 30.33 in
(1027 mb)
Calm - 10SM
00:35
Overcast
34°F / 1°C 32°F / 0°C 93% 30.3 in
(1026 mb)
Calm - 10SM
00:15
Overcast
34°F / 1°C 32°F / 0°C 93% 30.33 in
(1027 mb)
Calm - 10SM
Time Weather Temperature Dewpoint Humidity Pressure Winds Precip Visibility


Weather for websites

WeatherForYou.com, LLC is not responsible for any damages or problems caused by this service. Current weather conditions are obtained from the closest station including government and personal stations which may have varying degrees of accuracy. Weather forecasts are derived from the NOAA NDFD. Like all things, this site belongs to Jesus Christ... He just trusts me to maintain it. If you have any questions or comments email webmaster@weatherforyou.com

Copyright © 2014, WeatherForYou.com LLC. All rights reserved.